User: anonymous   Login
Location: Nairn
(57.5833°N, 3.8667°W)
Time: 13:20:46
(UTC+00:00)
Language:

SL-08 R/B - Orbit

View from above orbital plane
View from above orbital plane
View from above satellite
View from above satellite

Ground track
Ground track

The orbit data is extracted from the following two-line orbital elements,

1 27561U 02054C   20294.40494504 +.00000077 +00000-0 +28446-4 0  9991
2 27561 098.4317 082.3949 0046252 009.2628 350.9411 14.55835055949956
Epoch (UTC): 20 October 2020 09:43:07
Eccentricity: 0.0046252
inclination: 98.4317°
perigee height: 674 km
apogee height: 739 km
right ascension of ascending node: 82.3949°
argument of perigee: 9.2628°
revolutions per day: 14.55835055
mean anomaly at epoch: 350.9411°
orbit number at epoch: 94995

The dashed part of the orbit path shows where the satellite is in the earth's shadow,  

DLR